Home   Weather   Vientiane   Past weeks

Flag for Laos Past Weather in Vientiane, Laos — Yesterday and Last 2 Weeks

Now
66 °F

Fog.


Feels Like: 66 °F
Forecast: 66 / 95 °F
Wind: No wind

Location: Vientiane Airport

Current Time: Feb 20, 2017 at 2:04:36 am

Latest Report: Feb 20, 2017 at 12:30 am


Visibility: 2 mi

Pressure: 29.86 "Hg

Humidity: 88%

Dew Point: 63 °F

Location of VientianeLocation

Past Weather in Vientiane — Graph

°F

Vientiane Temperature Yesterday

Maximum temperature yesterday: 86 °F (at 2:00 pm)
Minimum temperature yesterday: 63 °F (at 6:00 am)
Average temperature yesterday: 78 °F

High & Low Weather Summary for the Past Weeks

 TemperatureHumidityPressure
High93 °F (Feb 8, 2:30 pm)100% (Feb 14, 6:30 am)30.27 "Hg (Feb 14, 6:30 am)
Low57 °F (Feb 14, 6:30 am)21% (Feb 5, 5:30 pm)29.74 "Hg (Feb 6, 3:30 pm)
Average76 °F57%29.99 "Hg
* Reported Feb 5 1:00 am — Feb 20 12:30 am, Vientiane, Weather by CustomWeather, © 2017

Note: Actual official high and low records may vary slightly from our data, if they occured in-between our weather recording intervals... More about our weather records

Advertising

Vientiane Weather History for the Previous 24 Hours

Scroll right to see more
 ConditionsComfort  
Time TempWeatherWind HumidityBarometerVisibility
12:30 am
Mon, Feb 20
66 °FFog.No wind88%29.86 "Hg2 mi
12:00 am66 °FFog.2 mph88%29.86 "Hg2 mi
11:30 pm
Sun, Feb 19
68 °FFog.2 mph88%29.86 "Hg2 mi
11:00 pm70 °FFog.2 mph83%29.86 "Hg2 mi
10:30 pm70 °FFog.2 mph83%29.86 "Hg2 mi
10:00 pm72 °FFog.2 mph78%29.86 "Hg2 mi
9:30 pm72 °FFog.2 mph78%29.86 "Hg2 mi
9:00 pm72 °FFog.2 mph73%29.86 "Hg2 mi
8:30 pm73 °FFog.2 mph74%29.86 "Hg2 mi
8:00 pm73 °FFog.2 mph69%29.83 "Hg2 mi
7:30 pm75 °FFog.No wind69%29.83 "Hg2 mi
7:00 pm77 °FFog.2 mph54%29.83 "Hg3 mi
6:30 pm79 °FFog.No wind58%29.80 "Hg3 mi
6:00 pm82 °FClear.2 mph48%29.80 "Hg4 mi
5:30 pm84 °FClear.2 mph40%29.80 "Hg5 mi
5:00 pm86 °FClear.5 mph40%29.80 "Hg5 mi
4:30 pm86 °FClear.5 mph40%29.80 "Hg5 mi
4:00 pm86 °FClear.5 mph38%29.83 "Hg5 mi
3:30 pm86 °FPassing clouds.2 mph38%29.86 "Hg5 mi
3:00 pm86 °FPassing clouds.2 mph38%29.86 "Hg5 mi
2:30 pm86 °FClear.7 mph38%29.86 "Hg5 mi
2:00 pm86 °FClear.7 mph38%29.89 "Hg5 mi
1:30 pm84 °FClear.7 mph37%29.92 "Hg5 mi
1:00 pm84 °FClear.5 mph37%29.95 "Hg5 mi
12:30 pm84 °FClear.5 mph40%29.95 "Hg5 mi
12:00 pm82 °FClear.5 mph45%29.98 "Hg5 mi
11:30 am81 °FClear.5 mph48%30.01 "Hg5 mi
11:00 am79 °FClear.2 mph51%30.04 "Hg5 mi
10:30 am77 °FClear.5 mph54%30.07 "Hg4 mi
10:00 am77 °FClear.5 mph54%30.07 "Hg4 mi
9:30 am75 °FClear.5 mph57%30.07 "Hg4 mi
9:00 am75 °FClear.2 mph57%30.07 "Hg4 mi
8:30 am73 °FFog.No wind61%30.07 "Hg3 mi
8:00 am70 °FFog.No wind73%30.04 "Hg3 mi
6:00 am63 °FFog.2 mph88%30.01 "Hg2 mi
Weather by CustomWeather, © 2017

See weather overviewHow to use our weather pages